星链-5781 (STARLINK-5781 )

导读

STARLINK-5781是美国太空探索技术公司(SpaceX)旗下星链(Starlink)星座的一颗卫星,于2023年3月24日发射入轨。作为星链第二代部署阶段的组网卫星,它为全球范围内的高速卫星互联网服务提供支撑,可服务偏远地区网络覆盖、移动载体通信及应急场景,是星链大规模低轨星座构建中的重要组成单元。

基本信息
目录编号:
56030
目录名称:
STARLINK-5781
国际标识:
2023-042AW
轨道中心:
EARTH
卫星名称:
星链-5781
卫星全名:
星链-5781 (STARLINK-5781 )
卫星状态:
在轨 (已飞行1179 天)
发射日期:
2023-03-24 UTC
国别 :
美国 (US)
星等 :
--
轨道信息
数据来源 国际轨道数据 AOE轨道数据
星历时间 2026-06-14T18:42:47+0800
13小时前
查看轨道信息
2026-06-12T07:00:00+0800
3天前
查看轨道信息
半长轴 6861.212km 6861.188km
偏心率 0.0001201 0.000184
轨道倾角 43.001° 43.002°
近地点辐角 262.345° 315.142°
升交点赤经 218.748° 232.800°
平近点角 97.727° 26.426°
近地点 482.25km 481.788km
远地点 483.9km 484.314km
周期 94.267分钟 94.267分钟
每日圈数 15.275714 15.275795
详细信息
固有亮度:
5
最大亮度:
2.5
卫星平台:
Starlink v1.5
覆盖范围:
全球
运营商:
太空探索技术公司
运营商所在国:
美国
制造商(研发单位):
太空探索技术公司
制造商所在国:
美国
使用方式:
暂无
卫星简介
星链(Starlink)计划是由太空探索技术公司(SpaceX)提出的一个巨型低轨卫星互联网星座项目,计划在2019年至2024年间在太空搭建由约1.2万颗卫星组成的“星链”网络,其中1584颗将部署在地球上空550千米处的近地轨道,并从2020年开始工作。该卫星仍在工作。
2D轨道图
3D轨道图
轨道高度分析图
轨道倾角分析图
轨道综合分析图
查看轨道综合分析图